الصفحة الرئيسية
METAR-TAF:

METAR-TAF

مطار :

كولورادو سبرينغس, كولورادو, الولايات المتحدة

دائرة عرض: 38-56-45N, خط طول: 104-34-12W, ارتفاع: 2095 متر

مراقبة الطقس الحالي

تاريخ ووقت الإصدار 26 دقيقة قبل الساعة 21:55UTC
ريح 12 عقدة من الجنوب/الجنوب الشرقي تتزايد حتى 17 عقدة
درجة الحرارة 27°درجة مئوية
الرطوبة 9%
ضغط 1023 hPa
الرؤية: 16.1 كم
سماء صافية

METAR: KFLY 222155Z AUTO 16012G17KT 10SM CLR 27/M08 A3021 RMK AO2 T02681080

زمن: 16:21 (22:21 UTC)


TAF: مفقودة

أرصاد الطقس والتوقعات من أكثر من 4000 مطار (تقارير الطقس للمطار METAR والتنبؤ بالطقس بالمطارTAF).

المحطات المتاحة هي النقط الصفراء والحمراء على الخريطة.

حرك المؤشر فوق النقطة لمعرفة اسم المحطة.

ثم انقر لمعرفة أرصاد وتوقعات الطقس.

لتغيير الخارطة: اضغط على الأزرار الخضراء مع رمز الصليب الأسود للتكبير. على الزر الأخضر مع شرطة للتصغير، أو على الأسهم الخضراء للخرائط المجاورة.


METAR-TAF: